Location: 3 Angels Observatory
(30.5437°N, 88.5068°W)
Time: 04:24:06
(UTC-05:00)

Amateur Radio Satellites - All Passes

Search period start: 29 August 2015 03:54
Search period end: 30 August 2015 03:54
Location: 3 Angels Observatory, 30.5437°N, 88.5068°W

Satellite Date Start Highest point End Downlink Frequencies (MHz)
Time Altitude Azimuth
JAS-2 29 Aug 03:56:03 04:03:05 85° 102° (ESE) 04:09:12 435.910
MOZHAYETS 4 29 Aug 04:07:54 04:12:04 35° 74° (ENE) 04:16:17
STARS 29 Aug 04:08:20 04:12:30 42° 261° (W) 04:16:41 437.465
ITAMSAT 1 29 Aug 04:11:14 04:15:48 32° 288° (WNW) 04:20:19 435.822/435.867
RS-15 29 Aug 04:15:30 04:25:50 33° 253° (WSW) 04:35:51 29.354- 29.394
KKS-1 29 Aug 04:20:10 04:23:15 18° 266° (W) 04:26:11 437.445
Cosmos 2499 29 Aug 04:39:53 04:47:55 66° 93° (E) 04:56:34 435.465 / 435.565
PHONESAT 2.4 29 Aug 05:13:40 05:15:39 15° 141° (SE) 05:17:43 2401.200-2431.200
O/OREOS (USA 219) 29 Aug 05:16:33 05:20:05 22° 63° (ENE) 05:23:43 437.305
AO-7 29 Aug 05:22:58 05:31:11 69° 289° (WNW) 05:39:22 29.400- 29.500
HORYU 2 29 Aug 05:26:39 05:30:43 35° 287° (WNW) 05:34:44 437.375
VERMONT LUNAR 29 Aug 05:30:22 05:32:55 25° 340° (NNW) 05:35:27 437.305
GONETS M04 29 Aug 05:35:13 05:39:23 13° 295° (WNW) 05:42:48
JAS-2 29 Aug 05:44:01 05:47:09 13° 298° (WNW) 05:49:42 435.910
MOZHAYETS 4 29 Aug 05:46:23 05:49:24 17° 267° (W) 05:52:14
CUBESAT XI-V 29 Aug 05:52:50 05:57:04 38° 74° (ENE) 06:01:21 437.345
STRAND 1 29 Aug 06:06:27 06:09:04 15° 68° (ENE) 06:11:56 437.568
CUTE-I 29 Aug 06:12:31 06:16:09 19° 94° (E) 06:20:01 437.470
Cosmos 2499 29 Aug 06:35:42 06:41:54 21° 291° (WNW) 06:47:56 435.465 / 435.565
PHONESAT 2.4 29 Aug 06:49:54 06:53:17 69° 332° (NNW) 06:56:41 2401.200-2431.200
O/OREOS (USA 219) 29 Aug 06:55:38 06:59:30 26° 257° (WSW) 07:03:13 437.305
Cubesat XI-IV 29 Aug 07:05:12 07:10:30 71° 101° (E) 07:15:49 437.490
VERMONT LUNAR 29 Aug 07:08:39 07:10:00 12° 357° (N) 07:11:21 437.305
YUBILEINY 29 Aug 07:11:13 07:13:23 11° 64° (ENE) 07:16:26 435.215
AO-7 29 Aug 07:20:32 07:22:46 11° 304° (NW) 07:24:19 29.400- 29.500
CUBESAT XI-V 29 Aug 07:32:01 07:34:41 15° 268° (W) 07:37:08 437.345
AIST 1 29 Aug 07:39:21 07:41:25 14° 89° (E) 07:43:41
PRISM 29 Aug 07:39:27 07:43:33 69° 258° (WSW) 07:47:38 437.425
STRAND 1 29 Aug 07:42:57 07:47:54 50° 260° (W) 07:52:51 437.568
CUTE-I 29 Aug 07:51:28 07:56:24 39° 287° (WNW) 08:01:17 437.470
Cosmos 2491 29 Aug 07:51:41 07:54:36 13° 83° (E) 07:58:20 435.465 / 435.565
BRITE-PL 29 Aug 08:01:09 08:06:27 46° 98° (E) 08:11:55 437.365/2234.400
HO-68 29 Aug 08:01:18 08:04:38 14° 91° (E) 08:08:32 435.675
CANX-2 29 Aug 08:18:12 08:19:49 12° 92° (E) 08:21:39 2200.000
PHONESAT 2.4 29 Aug 08:29:01 08:31:33 19° 348° (NNW) 08:34:06 2401.200-2431.200
SEEDS 29 Aug 08:44:05 08:46:54 18° 94° (E) 08:49:51 437.485
VERMONT LUNAR 29 Aug 08:45:08 08:47:12 17° 14° (NNE) 08:49:17 437.305
GOMX 1 29 Aug 08:45:34 08:51:02 77° 100° (E) 08:56:32 467.674
CINEMA 3 29 Aug 08:45:57 08:49:02 17° 92° (E) 08:52:17 145.822/145.860
Cubesat XI-IV 29 Aug 08:48:22 08:50:06 11° 294° (WNW) 08:51:27 437.490
YUBILEINY 29 Aug 09:03:01 09:11:53 80° 84° (E) 09:20:41 435.215
ISS 29 Aug 09:05:48 09:08:58 54° 131° (SE) 09:12:08 145.825
COMPASS 1 29 Aug 09:10:23 09:14:00 29° 97° (E) 09:17:39 437.405
DOVE 4 29 Aug 09:13:58 09:19:19 89° 92° (E) 09:24:35 437.250
AIST 1 29 Aug 09:14:59 09:18:48 31° 281° (W) 09:22:36
AAUSAT CUBESAT 2 29 Aug 09:23:08 09:26:55 35° 97° (E) 09:30:43 437.432
CUTE 1.7 + AOD 2 29 Aug 09:38:14 09:42:26 66° 283° (WNW) 09:46:35 437.475
BRITE-PL 29 Aug 09:40:43 09:44:40 20° 289° (WNW) 09:48:28 437.365/2234.400
Cosmos 2491 29 Aug 09:41:48 09:50:33 90° 66° (ENE) 09:59:17 435.465 / 435.565
TIGRISAT 29 Aug 09:43:32 09:46:00 15° 70° (ENE) 09:48:43 435.000
HO-68 29 Aug 09:45:55 09:53:07 77° 287° (WNW) 10:00:18 435.675
AUBIESAT-1 29 Aug 09:50:53 09:54:33 24° 67° (ENE) 09:58:21 437.475
CANX-2 29 Aug 09:52:00 09:55:56 38° 285° (WNW) 09:59:48 2200.000
M-CUBED/EXP-1 PRIME 29 Aug 09:52:49 09:56:53 29° 68° (ENE) 10:01:04 437.505
ANTELSAT 29 Aug 09:58:09 10:01:43 23° 72° (ENE) 10:05:27 437.575/2403.000
Oscar 11 29 Aug 10:08:04 10:12:18 53° 100° (E) 10:16:29 145.826/435.025
PHONESAT 2.4 29 Aug 10:08:06 10:10:14 16° 5° (N) 10:12:24 2401.200-2431.200
DELFI C3 29 Aug 10:08:27 10:11:58 31° 97° (E) 10:15:31 145.870
SO-50 29 Aug 10:13:29 10:16:18 15° 49° (NE) 10:19:15 436.795
SEEDS 29 Aug 10:19:11 10:22:41 26° 287° (WNW) 10:26:06 437.485
HUMSAT D 29 Aug 10:19:44 10:21:57 14° 92° (E) 10:24:21 437.325/437.525
VERMONT LUNAR 29 Aug 10:20:59 10:23:58 77° 29° (NNE) 10:26:57 437.305
CINEMA 3 29 Aug 10:21:44 10:26:24 39° 286° (WNW) 10:30:54 145.822/145.860
Cosmos 2504 29 Aug 10:22:22 10:29:37 32° 74° (ENE) 10:36:42 435.465 / 435.565
GOMX 1 29 Aug 10:26:46 10:28:37 11° 292° (WNW) 10:30:04 467.674
CUBEBUG 2 29 Aug 10:31:40 10:36:20 69° 283° (WNW) 10:40:51 437.445
ISS 29 Aug 10:44:10 10:45:37 12° 327° (NNW) 10:46:59 145.825
ZACube-1 29 Aug 10:44:35 10:49:07 87° 281° (W) 10:53:29 437.345
UWE-3 29 Aug 10:44:52 10:49:26 63° 284° (WNW) 10:53:50 435.000/436.395/437.385
COMPASS 1 29 Aug 10:46:50 10:49:27 16° 289° (WNW) 10:51:52 437.405
UNISAT 6 29 Aug 10:47:55 10:52:33 88° 69° (ENE) 10:57:16 437.425
FUNcube-1 29 Aug 10:51:22 10:55:51 74° 284° (WNW) 11:00:13 145.935
POLYITAN 1 29 Aug 10:55:38 10:59:26 33° 74° (ENE) 11:03:20 437.675
POPSAT HIP 1 29 Aug 10:59:22 11:03:13 36° 74° (ENE) 11:07:09 437.405
AAUSAT CUBESAT 2 29 Aug 11:00:09 11:02:14 13° 289° (WNW) 11:04:05 437.432
PCSat 29 Aug 11:00:30 11:02:58 13° 50° (NE) 11:05:41 145.827
DUCHIFAT 1 29 Aug 11:02:27 11:06:20 38° 74° (ENE) 11:10:17 145.980
YUBILEINY 29 Aug 11:02:49 11:07:53 16° 277° (W) 11:12:15 435.215
50 SAT 29 Aug 11:08:18 11:11:13 21° 95° (E) 11:14:13 437.505
QB50P2 29 Aug 11:15:13 11:19:24 62° 76° (ENE) 11:23:38 145.880/145.840
TIGRISAT 29 Aug 11:18:01 11:22:23 42° 261° (W) 11:26:50 435.000
NANOSAT C BR1 29 Aug 11:18:34 11:22:44 64° 76° (ENE) 11:26:56 145.865
ESTCUBE 1 29 Aug 11:18:41 11:21:44 18° 94° (E) 11:24:57 437.505/2401.250
BUGSAT 1 29 Aug 11:22:59 11:26:44 39° 75° (ENE) 11:30:34 437.445
CUSAT 1 29 Aug 11:23:55 11:31:37 57° 79° (E) 11:39:42 437.405
AUBIESAT-1 29 Aug 11:24:57 11:29:04 29° 259° (W) 11:33:11 437.475
M-CUBED/EXP-1 PRIME 29 Aug 11:27:43 11:31:35 24° 261° (W) 11:35:23 437.505
DANDE 29 Aug 11:30:33 11:37:48 46° 78° (ENE) 11:45:55 436.750
QB50P1 29 Aug 11:30:56 11:35:09 85° 258° (WSW) 11:39:25 145.935-145.965
DX 1 29 Aug 11:31:11 11:35:32 63° 101° (E) 11:39:53 434.975-435.025
ANTELSAT 29 Aug 11:34:26 11:38:22 26° 264° (W) 11:42:16 437.575/2403.000
HO-68 29 Aug 11:38:01 11:39:56 11° 300° (WNW) 11:41:16 435.675
AISAT 29 Aug 11:41:35 11:45:57 51° 99° (E) 11:50:20 437.250
Cosmos 2491 29 Aug 11:44:25 11:48:46 14° 294° (WNW) 11:52:23 435.465 / 435.565
DELFI C3 29 Aug 11:44:36 11:46:47 14° 289° (WNW) 11:48:45 145.870
PHONESAT 2.4 29 Aug 11:45:37 11:48:45 33° 21° (NNE) 11:51:54 2401.200-2431.200
UKube-1 29 Aug 11:48:22 11:52:43 88° 283° (WNW) 11:57:04 .
CUBEBUG 1 29 Aug 11:51:19 11:55:23 37° 98° (E) 11:59:30 437.445
SO-50 29 Aug 11:52:27 11:57:13 53° 246° (WSW) 12:01:50 436.795
HUMSAT D 29 Aug 11:54:00 11:57:49 32° 286° (WNW) 12:01:31 437.325/437.525
VERMONT LUNAR 29 Aug 11:59:16 12:00:09 11° 219° (SW) 12:00:54 437.305
SPROUT 29 Aug 12:00:12 12:01:40 12° 92° (E) 12:03:24 437.525
VELOX 1 29 Aug 12:10:36 12:15:03 72° 284° (WNW) 12:19:29 145.980
Cosmos 2504 29 Aug 12:14:08 12:21:58 42° 271° (W) 12:29:14 435.465 / 435.565
POLYITAN 1 29 Aug 12:33:01 12:35:28 14° 267° (W) 12:37:43 437.675
POPSAT HIP 1 29 Aug 12:37:07 12:39:15 13° 268° (W) 12:41:11 437.405
DUCHIFAT 1 29 Aug 12:40:24 12:42:20 12° 268° (W) 12:44:01 145.980
PCSat 29 Aug 12:41:35 12:46:59 70° 247° (WSW) 12:52:21 145.827
50 SAT 29 Aug 12:42:52 12:45:38 18° 288° (WNW) 12:48:15 437.505
Oscar 19 29 Aug 12:52:02 12:56:10 26° 71° (ENE) 13:00:27 437.125/150
ESTCUBE 1 29 Aug 12:54:43 12:58:38 29° 287° (WNW) 13:02:30 437.505/2401.250
BUGSAT 1 29 Aug 13:01:17 13:02:26 11° 269° (W) 13:03:19 437.445
JUGNU 29 Aug 13:02:33 13:06:06 16° 165° (SSE) 13:09:43 437.505
CUSAT 1 29 Aug 13:07:26 13:13:52 26° 270° (W) 13:20:09 437.405
TISAT 1 29 Aug 13:13:06 13:17:17 53° 100° (E) 13:21:27 437.305
Gurwin Techsat 1B 29 Aug 13:13:29 13:15:00 11° 67° (ENE) 13:16:53 435.225
DANDE 29 Aug 13:13:57 13:20:50 34° 268° (W) 13:28:05 436.750
AISAT 29 Aug 13:20:37 13:22:08 11° 291° (WNW) 13:23:21 437.250
PHONESAT 2.4 29 Aug 13:23:28 13:26:39 36° 214° (SW) 13:29:49 2401.200-2431.200
CUBEBUG 1 29 Aug 13:28:52 13:31:28 15° 290° (WNW) 13:33:52 437.445
SPROUT 29 Aug 13:33:52 13:37:59 42° 285° (WNW) 13:42:03 437.525
ITAMSAT 1 29 Aug 13:45:18 13:48:58 21° 70° (ENE) 13:52:49 435.822/435.867
ITUPSAT 1 29 Aug 13:46:59 13:50:03 18° 94° (E) 13:53:18 437.325
GONETS M04 29 Aug 13:50:12 13:57:58 35° 75° (ENE) 14:05:55
JAS-2 29 Aug 14:01:14 14:06:52 25° 66° (ENE) 14:12:58 435.910
SRMSAT 29 Aug 14:08:42 14:10:33 12° 162° (SSE) 14:12:34 437.500
BEESAT 29 Aug 14:20:50 14:25:22 45° 99° (E) 14:29:55 436.000
BEESAT 3 29 Aug 14:23:08 14:24:40 12° 110° (ESE) 14:26:26 437.485
AO-7 29 Aug 14:26:31 14:31:27 18° 60° (ENE) 14:36:49 29.400- 29.500
Oscar 19 29 Aug 14:31:00 14:35:26 28° 264° (W) 14:39:48 437.125/150
BEESAT 2 29 Aug 14:31:39 14:32:39 11° 109° (ESE) 14:33:54 435.950
Cosmos 2499 29 Aug 14:40:48 14:45:33 17° 66° (ENE) 14:50:42 435.465 / 435.565
SWISSCUBE 29 Aug 14:46:11 14:50:57 83° 283° (WNW) 14:55:41 437.505
Gurwin Techsat 1B 29 Aug 14:49:12 14:54:28 69° 258° (WSW) 14:59:47 435.225
JUGNU 29 Aug 14:49:46 14:54:36 26° 174° (S) 14:59:26 437.505
ITAMSAT 1 29 Aug 15:23:29 15:28:15 36° 262° (W) 15:32:59 435.822/435.867
ITUPSAT 1 29 Aug 15:23:43 15:28:03 35° 287° (WNW) 15:32:20 437.325
JAS-2 29 Aug 15:44:03 15:51:20 60° 261° (W) 15:59:04 435.910
GONETS M04 29 Aug 15:46:48 15:54:52 41° 271° (W) 16:02:49
SRMSAT 29 Aug 15:54:41 15:59:11 23° 170° (S) 16:03:44 437.500
BEESAT 3 29 Aug 15:58:28 16:02:16 39° 301° (WNW) 16:06:06 437.485
BEESAT 29 Aug 16:00:14 16:02:52 14° 291° (WNW) 16:05:16 436.000
STARS 29 Aug 16:03:18 16:07:40 54° 100° (E) 16:12:00 437.465
BEESAT 2 29 Aug 16:06:25 16:10:20 44° 300° (WNW) 16:14:16 435.950
MOZHAYETS 4 29 Aug 16:10:24 16:12:14 13° 91° (E) 16:14:21
AO-7 29 Aug 16:15:05 16:23:27 82° 254° (WSW) 16:31:50 29.400- 29.500
KKS-1 29 Aug 16:15:11 16:19:36 59° 284° (WNW) 16:24:00 437.445
RS-15 29 Aug 16:18:07 16:28:49 68° 113° (ESE) 16:39:53 29.354- 29.394
HORYU 2 29 Aug 16:18:34 16:23:03 79° 258° (WSW) 16:27:34 437.375
AIST 2 29 Aug 16:24:22 16:28:23 45° 114° (ESE) 16:32:28 435.215
Cosmos 2499 29 Aug 16:31:16 16:39:55 79° 266° (W) 16:47:54 435.465 / 435.565
JUGNU 29 Aug 16:38:12 16:43:08 28° 184° (S) 16:48:03 437.505
ISS 29 Aug 17:13:45 17:16:56 51° 44° (NE) 17:20:06 145.825
CUTE-I 29 Aug 17:29:19 17:32:53 19° 69° (ENE) 17:36:39 437.470
STARS 29 Aug 17:42:38 17:43:41 11° 292° (WNW) 17:44:26 437.465
SRMSAT 29 Aug 17:42:52 17:47:53 29° 179° (S) 17:52:55 437.500
MOZHAYETS 4 29 Aug 17:45:23 17:49:43 43° 285° (WNW) 17:54:00
CUBESAT XI-V 29 Aug 17:56:16 17:58:52 15° 93° (E) 18:01:42 437.345
AIST 2 29 Aug 18:04:58 18:07:13 14° 309° (NW) 18:09:18 435.215
AO-7 29 Aug 18:14:42 18:17:28 11° 270° (W) 18:19:21 29.400- 29.500
Cubesat XI-IV 29 Aug 18:21:34 18:26:51 67° 75° (ENE) 18:32:09 437.490
JUGNU 29 Aug 18:27:30 18:31:39 20° 193° (SSW) 18:35:43 437.505
RS-15 29 Aug 18:32:47 18:42:11 30° 315° (NW) 18:51:33 29.354- 29.394
CUTE-I 29 Aug 19:07:41 19:12:42 41° 261° (W) 19:17:41 437.470
BRITE-PL 29 Aug 19:07:54 19:11:13 23° 71° (ENE) 19:14:47 437.365/2234.400
O/OREOS (USA 219) 29 Aug 19:22:11 19:26:40 72° 107° (ESE) 19:31:12 437.305
AIST 1 29 Aug 19:27:29 19:31:23 33° 79° (E) 19:35:20
PRISM 29 Aug 19:27:38 19:30:56 24° 96° (E) 19:34:20 437.425
SRMSAT 29 Aug 19:31:53 19:36:34 24° 189° (S) 19:41:16 437.500
CUBESAT XI-V 29 Aug 19:32:10 19:36:28 38° 286° (WNW) 19:40:44 437.345
GOMX 1 29 Aug 19:48:43 19:52:45 39° 74° (ENE) 19:57:04 467.674
COMPASS 1 29 Aug 19:58:47 19:59:31 11° 70° (ENE) 20:00:31 437.405
STRAND 1 29 Aug 19:58:56 20:04:03 87° 99° (E) 20:09:11 437.568
Cosmos 2491 29 Aug 19:59:46 20:07:25 34° 75° (ENE) 20:15:17 435.465 / 435.565
YUBILEINY 29 Aug 20:04:21 20:09:04 17° 84° (E) 20:14:26 435.215
Cubesat XI-IV 29 Aug 20:06:08 20:07:29 11° 270° (W) 20:08:24 437.490
HO-68 29 Aug 20:08:12 20:14:53 46° 70° (ENE) 20:21:40 435.675
AAUSAT CUBESAT 2 29 Aug 20:10:15 20:11:54 12° 70° (ENE) 20:13:47 437.432
DOVE 4 29 Aug 20:14:06 20:18:19 45° 74° (ENE) 20:22:49 437.250
CUTE 1.7 + AOD 2 29 Aug 20:25:19 20:29:20 41° 75° (ENE) 20:33:23 437.475
CANX-2 29 Aug 20:38:38 20:42:55 70° 77° (ENE) 20:47:12 2200.000
BRITE-PL 29 Aug 20:46:29 20:49:45 21° 267° (W) 20:53:01 437.365/2234.400
Oscar 11 29 Aug 20:58:03 21:01:15 21° 72° (ENE) 21:04:34 145.826/435.025
PRISM 29 Aug 21:03:15 21:06:14 19° 288° (WNW) 21:09:06 437.425
SEEDS 29 Aug 21:04:32 21:08:47 80° 258° (WSW) 21:13:03 437.485
AIST 1 29 Aug 21:06:25 21:08:46 14° 271° (W) 21:10:54
CINEMA 3 29 Aug 21:17:03 21:21:35 82° 259° (WSW) 21:26:24 145.822/145.860
SRMSAT 29 Aug 21:22:21 21:25:13 14° 197° (SSW) 21:27:58 437.500
CUBEBUG 2 29 Aug 21:23:47 21:28:10 49° 75° (ENE) 21:32:42 437.445
GOMX 1 29 Aug 21:29:01 21:31:12 13° 270° (W) 21:33:10 467.674
COMPASS 1 29 Aug 21:30:43 21:34:48 47° 261° (W) 21:38:53 437.405
ZACube-1 29 Aug 21:34:44 21:38:49 36° 74° (ENE) 21:43:02 437.345
UWE-3 29 Aug 21:35:51 21:40:13 52° 75° (ENE) 21:44:44 435.000/436.395/437.385
FUNcube-1 29 Aug 21:41:07 21:45:19 42° 75° (ENE) 21:49:39 145.935
AAUSAT CUBESAT 2 29 Aug 21:43:14 21:47:11 39° 262° (W) 21:51:07 437.432
DOVE 4 29 Aug 21:54:34 21:56:29 12° 271° (W) 21:58:07 437.250
Cosmos 2491 29 Aug 21:56:19 22:04:22 41° 271° (W) 22:12:18 435.465 / 435.565
YUBILEINY 29 Aug 21:56:21 22:05:07 76° 277° (W) 22:13:57 435.215
HO-68 29 Aug 21:56:52 22:02:48 27° 264° (W) 22:08:33 435.675
CUTE 1.7 + AOD 2 29 Aug 22:03:40 22:05:27 12° 268° (W) 22:06:59 437.475
DX 1 29 Aug 22:21:47 22:25:20 26° 72° (ENE) 22:28:58 434.975-435.025
DELFI C3 29 Aug 22:24:07 22:28:04 48° 261° (W) 22:32:00 145.870
Oscar 11 29 Aug 22:33:40 22:37:18 25° 264° (W) 22:40:51 145.826/435.025
AISAT 29 Aug 22:34:29 22:37:53 23° 72° (ENE) 22:41:23 437.250
UKube-1 29 Aug 22:37:44 22:41:39 36° 74° (ENE) 22:45:37 .
HUMSAT D 29 Aug 22:39:08 22:43:26 80° 78° (ENE) 22:47:46 437.325/437.525
CUBEBUG 1 29 Aug 22:43:21 22:45:49 16° 71° (ENE) 22:48:30 437.445
Cosmos 2504 29 Aug 22:45:47 22:51:57 27° 86° (E) 22:58:42 435.465 / 435.565
UNISAT 6 29 Aug 22:46:14 22:50:08 28° 96° (E) 22:54:00 437.425
VELOX 1 29 Aug 23:02:30 23:06:43 48° 75° (ENE) 23:10:58 145.980
CUBEBUG 2 29 Aug 23:03:29 23:05:12 12° 270° (W) 23:06:38 437.445
QB50P2 29 Aug 23:07:20 23:09:55 16° 93° (E) 23:12:40 145.880/145.840
NANOSAT C BR1 29 Aug 23:10:11 23:12:48 16° 93° (E) 23:15:36 145.865
AUBIESAT-1 29 Aug 23:11:20 23:14:48 33° 101° (E) 23:18:04 437.475
ZACube-1 29 Aug 23:12:34 23:15:20 15° 268° (W) 23:17:54 437.345
M-CUBED/EXP-1 PRIME 29 Aug 23:14:11 23:17:56 46° 103° (ESE) 23:21:25 437.505
TIGRISAT 29 Aug 23:15:18 23:19:49 63° 100° (E) 23:24:14 435.000
UWE-3 29 Aug 23:15:50 23:17:07 11° 270° (W) 23:18:04 435.000/436.395/437.385
RS-15 29 Aug 23:16:43 23:20:48 12° 26° (NNE) 23:25:39 29.354- 29.394
50 SAT 29 Aug 23:19:14 23:23:11 79° 258° (WSW) 23:27:10 437.505
FUNcube-1 29 Aug 23:19:37 23:21:53 13° 269° (W) 23:23:54 145.935
QB50P1 29 Aug 23:22:11 23:25:36 24° 96° (E) 23:29:07 145.935-145.965
ANTELSAT 29 Aug 23:31:22 23:35:57 79° 281° (WNW) 23:40:22 437.575/2403.000
ESTCUBE 1 29 Aug 23:48:01 23:52:29 64° 260° (W) 23:56:55 437.505/2401.250
DX 1 29 Aug 23:58:21 00:01:34 20° 265° (W) 00:04:39 434.975-435.025
TISAT 1 30 Aug 00:00:35 00:03:30 19° 72° (ENE) 00:06:34 437.305
YUBILEINY 30 Aug 00:01:41 00:03:42 10° 297° (WNW) 00:04:47 435.215
AISAT 30 Aug 00:10:49 00:14:22 23° 265° (W) 00:17:49 437.250
UKube-1 30 Aug 00:15:36 00:17:56 14° 267° (W) 00:20:02 .
CUBEBUG 1 30 Aug 00:18:02 00:21:56 33° 262° (W) 00:25:49 437.445
POLYITAN 1 30 Aug 00:21:48 00:26:03 56° 284° (WNW) 00:30:14 437.675
SPROUT 30 Aug 00:21:53 00:26:08 69° 77° (ENE) 00:30:26 437.525
BEESAT 3 30 Aug 00:22:29 00:25:28 20° 54° (NE) 00:28:30 437.485
SO-50 30 Aug 00:22:52 00:25:27 15° 109° (ESE) 00:28:19 436.795
UNISAT 6 30 Aug 00:23:23 00:26:44 20° 289° (WNW) 00:29:52 437.425
POPSAT HIP 1 30 Aug 00:25:22 00:29:33 52° 284° (WNW) 00:33:42 437.405
CUSAT 1 30 Aug 00:26:16 00:29:30 64° 95° (E) 00:33:45 437.405
DUCHIFAT 1 30 Aug 00:27:55 00:32:04 50° 285° (WNW) 00:36:12 145.980
BEESAT 2 30 Aug 00:31:15 00:34:06 19° 54° (NE) 00:37:03 435.950
Cosmos 2504 30 Aug 00:36:05 00:43:43 50° 281° (WNW) 00:51:49 435.465 / 435.565
DANDE 30 Aug 00:38:23 00:41:12 42° 93° (E) 00:44:44 436.750
QB50P2 30 Aug 00:42:04 00:45:52 31° 287° (WNW) 00:49:37 145.880/145.840
VELOX 1 30 Aug 00:42:31 00:43:35 11° 269° (W) 00:44:19 145.980
NANOSAT C BR1 30 Aug 00:44:55 00:48:42 30° 286° (WNW) 00:52:24 145.865
BUGSAT 1 30 Aug 00:45:31 00:49:39 50° 285° (WNW) 00:53:46 437.445
AUBIESAT-1 30 Aug 00:47:34 00:49:11 12° 296° (WNW) 00:50:35 437.475
ITUPSAT 1 30 Aug 00:50:18 00:51:40 11° 68° (ENE) 00:53:20 437.325
QB50P1 30 Aug 00:58:03 01:01:21 21° 288° (WNW) 01:04:31 145.935-145.965
Oscar 19 30 Aug 01:10:19 01:12:53 14° 92° (E) 01:15:45 437.125/150
BEESAT 30 Aug 01:22:10 01:26:08 28° 72° (ENE) 01:30:13 436.000
RS-15 30 Aug 01:26:10 01:37:28 48° 54° (NE) 01:49:13 29.354- 29.394
PCSat 30 Aug 01:34:49 01:39:35 34° 109° (ESE) 01:44:28 145.827
TISAT 1 30 Aug 01:35:37 01:39:08 25° 264° (W) 01:42:34 437.305
SWISSCUBE 30 Aug 01:47:01 01:51:41 59° 75° (ENE) 01:56:24 437.505
BEESAT 3 30 Aug 02:00:05 02:03:20 24° 248° (WSW) 02:06:29 437.485
SO-50 30 Aug 02:01:05 02:05:38 44° 302° (WNW) 02:10:18 436.795
ITAMSAT 1 30 Aug 02:05:43 02:06:41 11° 91° (E) 02:08:03 435.822/435.867
BEESAT 2 30 Aug 02:08:44 02:12:09 26° 248° (WSW) 02:15:26 435.950
ITUPSAT 1 30 Aug 02:24:25 02:29:08 58° 260° (W) 02:33:51 437.325
AIST 2 30 Aug 02:29:24 02:33:33 80° 62° (ENE) 02:37:38 435.215
GONETS M04 30 Aug 02:43:48 02:51:56 48° 90° (E) 03:00:12
Oscar 19 30 Aug 02:47:32 02:52:34 50° 286° (WNW) 02:57:33 437.125/150
VERMONT LUNAR 30 Aug 02:48:06 02:50:13 18° 143° (SE) 02:52:22 437.305
STARS 30 Aug 02:55:14 02:58:41 24° 72° (ENE) 03:02:15 437.465
BEESAT 30 Aug 03:00:10 03:03:58 23° 265° (W) 03:07:38 436.000
JAS-2 30 Aug 03:02:03 03:07:42 29° 93° (E) 03:12:56 435.910
KKS-1 30 Aug 03:07:28 03:11:49 61° 76° (ENE) 03:16:14 437.445
Gurwin Techsat 1B 30 Aug 03:11:07 03:16:26 77° 101° (E) 03:21:45 435.225
Cosmos 2499 30 Aug 03:11:26 03:15:12 15° 82° (E) 03:19:45 435.465 / 435.565
PCSat 30 Aug 03:18:36 03:23:04 25° 304° (WNW) 03:27:26 145.827
ITAMSAT 1 30 Aug 03:41:32 03:46:40 64° 285° (WNW) 03:51:48 435.822/435.867
